Starlink 4681

operational
NORAD ID: 53594 Int'l Des: 2022-104 Owner: SPXS Country: US Constellation: starlink
LEOCIRCULAR

关于 Starlink 4681

正在加载描述...

实时位置

正在加载3D地球...

即将过境

高度历史

Altitude vs Time

uPlot chart will show altitude changes over time

两行轨道根数

1 53594U 22104G 25351.87277563 -.00002458 00000-0 -13639-3 0 9992
2 53594 53.2178 251.3868 0000884 97.6882 262.4211 15.08843270183735
Epoch: Dec 17, 2025 • Age: 15 hours

当前状态

高度 549.7 km
速度 7.59 km/s
星下点 -31.18°S, 175.48°W
发射日期 Aug 28, 2022
运行时间 3.3 years
类型 internet

技术详情

分类 Payload
质量 300.00 kg
干质量 290.00 kg
总质量 300.00 kg
长度 0.20 m
直径 2.80 m
跨度 9.00 m
形状 Box + pan
制造商 SPXS
平台类型 Starlink
阶段状态 In Orbit
所有者/国家 SPXS/US

大型星座

Loading constellations...